Regional Weather Roundup
Issued by NWS

Current Version | Previous Version | Text Only | Print | Product List | Glossary On
Versions: 1 2 3 4 5 6 7 8 9 10 11 12 13 14 15 16 17 18 19 20 21 22 23 24 25 26 27 28 29 30 31 32 33 34 35 36 37 38 39 40 41 42 43 44 45 46 47 48 49 50
053
ASUS42 KKEY 282210
RWRKEY

FLORIDA REGIONAL WEATHER ROUNDUP FOR THE FLORIDA KEYS
NATIONAL WEATHER SERVICE KEY WEST FLORIDA
600 PM EDT SAT MAY 28 2016

...SOUTH FLORIDA AND THE KEYS...

CITY           SKY/WX    TMP DP  RH WIND       PRES   REMARKS
FORT MYERS     CLOUDY    84  70  62 W6        29.97F
SW REGIONAL AP MOSUNNY   84  70  62 CALM      29.98F
NAPLES         MOSUNNY   84  68  58 E5        29.97F
MIAMI          PTSUNNY   85  67  54 E5        29.98F
WEST KENDALL   MOSUNNY   80  68  66 SW3       29.98S
HOMESTEAD      CLOUDY    83  73  73 NE7       29.97F
MARATHON       SUNNY     85  70  60 VRB5      29.96F
BOCA CHICA NAS MOSUNNY   86  69  56 E3        29.96F HX  90
KEY WEST INTL  MOSUNNY   84  70  62 SW5       29.97S

...INTERNATIONAL WEATHER...

CITY           SKY/WX    TMP DP  RH WIND       PRES   REMARKS
NASSAU BAHAMAS MOSUNNY   84  73  70 N6        30.00S HX  91
CANCUN MEXICO  MOSUNNY   86  75  70 E15       29.92S HX  95
COZUMEL MEXICO MOSUNNY   86  75  70 SE14      29.92S HX  95

ADJACENT COASTAL WATERS...

STATION/POSITION TIME  SKY/WX   TEMP    WIND        PRES    WAVE
                                AIR SEA DIR/SP/G            HT/PER
                 (UTC)          (F)     (DEG/KT/KT) (MB)    (FT/S)
PULASKI SHOAL LI 2200            82      80/  5/  5 1015.1S
SAND KEY         2150            82      80/  2/  3 1015.2F
SOMBRERO KEY     NOT AVBL
LONG KEY         2100            84 85   CALM  /  1 1015.4F
MOLASSES REEF    2200            83 84   90/  1/  3 1015.3F
FOWEY ROCKS      2200            79 83   50/  5/  6 1015.9F

$$




USA.gov is the U.S. government's official web portal to all federal, state and local government web resources and services.